Location: Casco Millpond
(44.5581°N, 87.6111°W)
Time: 09:16:05
(UTC+00:00)

NOSS 3-4 (A) - Pass Details

Date: 16 January 2026
Orbit: 769 x 1442 km, 63.4° (Epoch: 10 January)

Event Time Altitude Azimuth Distance (km) Brightness Sun altitude
Rises 23:32:29 0° 218° (SW) 3,226 7.3 -9.7°
Reaches altitude 10° 23:34:49 10° 219° (SW) 2,312 6.5 -10.1°
Maximum altitude 23:40:03 84° 307° (NW) 816 3.2 -10.9°
Drops below altitude 10° 23:45:49 10° 37° (NE) 2,538 5.2 -11.9°
Enters shadow 23:46:01 - 37° (NE) 2,614 5.3 -12.0°
